Flag for Norway Weather past 2 weeks in Førde, Norway

52 °F

Partly cloudy.

Feels Like: 47 °F
Forecast: 37 / 55 °F
Wind: 14 mph from South

Location: Floro

Current Time: Oct 10, 2015 at 7:22:31 AM

Latest Report: Oct 10, 2015 at 6:50 AM

Visibility: N/A

Pressure: 30.30 "Hg

Humidity: 77%

Dew point: 45 °F

Location of FørdeLocation

Historic Weather in Førde — Graph


Førde temperature yesterday

Maximum temperature yesterday: 54 °F (at 12:50 PM)
Minimum temperature yesterday: 48 °F (at 12:20 AM)
Average temperature yesterday: 52 °F

Past Weeks' High & Low Weather Summary

High63 °F (Oct 6, 2:50 PM)100% (Sep 30, 8:20 AM)30.63 "Hg (Sep 30, 8:20 AM)
Low43 °F (Oct 5, 6:50 AM)36% (Oct 6, 11:50 PM)29.62 "Hg (Sep 25, 6:50 AM)
Average53 °F78%30.18 "Hg
* Reported Sep 25 6:50 AM — Oct 10 6:20 AM, Førde, Weather by CustomWeather, © 2015

Note: Actual official high and low records may vary slightly from our data, if they occured in-between our weather recording intervals... More about our weather records


Førde weather history for previous 24 hours

Time TempWeatherWind HumidityBarometerVisibility
6:20 AM
Sat, Oct 10
54 °FMostly cloudy.16 mph72%30.30 "HgN/A
5:50 AM54 °FOvercast.15 mph67%30.30 "HgN/A
5:20 AM54 °FOvercast.14 mph67%30.30 "HgN/A
4:50 AM54 °FMostly cloudy.13 mph67%30.30 "HgN/A
4:20 AM54 °FMostly cloudy.12 mph67%30.30 "HgN/A
3:50 AM54 °FOvercast.12 mph67%30.30 "HgN/A
3:20 AM54 °FMostly cloudy.10 mph67%30.30 "HgN/A
2:50 AM54 °FOvercast.10 mph67%30.30 "HgN/A
2:20 AM52 °FMostly cloudy.9 mph72%30.30 "HgN/A
1:50 AM52 °FOvercast.8 mph77%30.30 "HgN/A
1:20 AM54 °FOvercast.10 mph72%30.27 "HgN/A
12:50 AM52 °FMostly cloudy.12 mph77%30.27 "HgN/A
12:20 AM54 °FOvercast.9 mph72%30.27 "HgN/A
11:50 PM
Fri, Oct 9
54 °FOvercast.10 mph67%30.27 "HgN/A
10:50 PM54 °FPassing clouds.13 mph67%30.27 "HgN/A
10:20 PM54 °FPassing clouds.14 mph67%30.27 "HgN/A
9:50 PM54 °FSprinkles. Partly cloudy.14 mph67%30.27 "HgN/A
9:20 PM54 °FPartly cloudy.12 mph67%30.27 "HgN/A
8:50 PM54 °FPartly cloudy.12 mph67%30.27 "HgN/A
8:20 PM54 °FPartly cloudy.14 mph72%30.24 "HgN/A
7:50 PM54 °FPartly cloudy.14 mph72%30.24 "HgN/A
7:20 PM54 °FScattered showers. Broken clouds.12 mph77%30.24 "HgN/A
6:50 PM54 °FScattered showers. Broken clouds.15 mph77%30.24 "HgN/A
6:20 PM54 °FSprinkles. Broken clouds.17 mph77%30.24 "HgN/A
5:50 PM54 °FBroken clouds.16 mph77%30.24 "HgN/A
5:20 PM54 °FBroken clouds.12 mph77%30.24 "HgN/A
4:50 PM54 °FBroken clouds.15 mph77%30.24 "HgN/A
4:20 PM54 °FBroken clouds.13 mph77%30.24 "HgN/A
3:50 PM54 °FBroken clouds.12 mph77%30.24 "HgN/A
3:20 PM54 °FBroken clouds.10 mph72%30.24 "HgN/A
2:50 PM54 °FBroken clouds.10 mph72%30.24 "HgN/A
2:20 PM54 °FBroken clouds.12 mph77%30.24 "HgN/A
1:50 PM54 °FBroken clouds.14 mph77%30.24 "HgN/A
1:20 PM52 °FBroken clouds.15 mph82%30.24 "HgN/A
12:50 PM54 °FScattered showers. Broken clouds.15 mph77%30.21 "HgN/A
12:20 PM52 °FScattered showers. Broken clouds.16 mph82%30.21 "HgN/A
11:50 AM52 °FScattered showers. Partly sunny.15 mph82%30.21 "HgN/A
11:20 AM52 °FPartly sunny.15 mph82%30.21 "HgN/A
10:50 AM52 °FPartly sunny.16 mph82%30.21 "HgN/A
10:20 AM52 °FScattered showers. Broken clouds.13 mph82%30.21 "HgN/A
9:50 AM52 °FScattered showers. Broken clouds.16 mph82%30.21 "HgN/A
9:20 AM52 °FScattered showers. Broken clouds.15 mph82%30.21 "HgN/A
8:50 AM52 °FPartly cloudy.18 mph82%30.18 "HgN/A
8:20 AM52 °FScattered showers. Partly cloudy.20 mph82%30.18 "HgN/A
7:50 AM52 °FScattered showers. Passing clouds.18 mph82%30.18 "HgN/A
7:20 AM52 °FPassing clouds.20 mph82%30.18 "HgN/A
Weather by CustomWeather, © 2015

See weather overviewHow to use our weather pages